Retour au catalogue

IRIDIUM 176

ActifCommunicationsPO
NORAD 43923·PAYLOAD·🇺🇸 United States

Lancé Jan 11, 2019 depuis Vandenberg Space Force Base

Loading…

Prochains Passages (prochaines 24 heures)

TLE

FraisSource: CelesTrak SupGP

Époque: Sep 15, 2026, 02:24 UTC

1 43923C 19002B   26258.10034722  .00002947  00000+0  46816-3 0  2582
2 43923  86.6095 315.9651 0002485  94.4687  12.0437 14.72244648    14

Suivez IRIDIUM 176 en temps réel avec AllMySat

Download on the App Store